www.pogodaiklimat.ru

Погода и климат >> Архив погоды >> Китай >> Тайвань >> Тайчжун


ПОГОДА в Тайчжуне

  • Прогноз погоды в Тайчжуне
  • Монитор погоды в Тайчжуне

АРХИВ ПОГОДЫ в Тайчжуне

Время (UTC), дата Ветер
(напр.,м/с)
 
Видим.   Явления Облачность Т
(С)
Тd
(С)
f
(%)
Тe
(С)
Тes
(С)
Комфортность P
(гПа)
Po
(гПа)
Тmin
(С)
Tmax
(С)
R
(мм)
R24
(мм)
S
(см)
06 17.09 СЗ 3 10 км 8/8 600 м
[Sc diur, vesp]
+30.9 +24.6 69 +44 +46 опасность
перегрева
1005.7 996.1
09 17.09 н/о
12 17.09 С 3 12 км ясно +27.3 +24.1 83 +38 +38 очень
душно
1008.0 998.3
18 17.09 С 1 10 км ясно +25.4 +22.8 86 +34 +34 очень
душно
1007.5 997.7
21 17.09 С 2 10 км 8/8 1000 м
[Sc diur, vesp]
+25.8 +22.2 81 +34 +34 очень
душно
1007.9 998.1
00 18.09 С 1 12 км ясно +27.2 +24.0 83 +38 +43 очень
душно
1009.2 999.5
03 18.09 С 3 10 км 1/1 600 м
[Cu hum]
+31.5 +20.5 52 +38 +51 опасность
солнечного
удара
1008.0 998.4
06 18.09 С 4 20 км 1/1 600 м
[Cu med, cong]
+33.0 +22.6 54 +42 +51 опасность
перегрева
1005.8 996.3
09 18.09 С 3 20 км ясно +29.4 +22.6 67 +39 +40 очень
душно
1006.6 996.9
12 18.09 С 5 12 км 1/1 1000 м
[Sc]
+26.4 +21.4 74 +34 +34 очень
душно
1009.1 999.3
18 18.09 С 3 12 км 3/3 1000 м
[Sc]
+25.3 +19.3 69 +30 +30 душно 1008.2 998.4
21 18.09 С 3 12 км 8/8 1000 м
[Sc]
+25.2 +18.4 66 +30 +30 душно 1008.5 998.7
00 19.09 С 2 10 км 9/9 600 м
[Sc]
+26.6 +18.3 60 +31 +32 душно 1009.4 999.6
03 19.09 С 3 15 км 4/0
[Cs]
+31.3 +21.2 55 +39 +52 опасность
солнечного
удара
1008.4 998.8
06 19.09 С 5 12 км 4/0
[Cs]
+31.0 +21.9 58 +39 +46 очень
душно
1006.2 996.6
09 19.09 С 4 12 км 1/0
[Ci fib]
+27.4 +20.4 66 +34 +35 очень
душно
1006.0 996.3
12 19.09 С 4 12 км ясно +25.3 +18.8 67 +30 +30 душно 1007.7 997.9
18 19.09 С 3 12 км 6/0
[Ac As]
+24.9 +19.6 72 +30 +30 душно 1005.9 996.1
21 19.09 С 3 12 км 9/9 600 м
[Sc]
+24.7 +20.5 77 +31 +31 очень
душно
1006.1 996.3
00 20.09 С 5 20 км 8/8 1000 м
[Sc]
+25.8 +20.5 73 +32 +33 очень
душно
1006.7 996.9
03 20.09 С 5 20 км 3/3 1000 м
[Sc]
+28.1 +22.0 70 +37 +43 очень
душно
1005.2 995.5
06 20.09 С 5 20 км 1/1 1000 м
[Sc]
+27.9 +21.5 68 +36 +42 очень
душно
1003.3 993.6
09 20.09 С 5 20 км 1/1 1000 м
[Sc]
+25.8 +21.0 75 +32 +33 очень
душно
1003.2 993.5
12 20.09 С 5 12 км ясно +23.3 +19.2 78 +30 +30 очень
душно
1004.3 994.5
21 20.09 С 2 18 км 8/8 600 м
[Sc]
+23.5 +17.7 70 +28 +28 душно 1002.5 992.7
00 21.09 С 2 12 км 6/6 1000 м
[Sc]
+23.7 +18.8 74 +28 +30 душно 1004.4 994.6
03 21.09 СЗ 3 12 км 9/9 1000 м
[Sc]
+27.1 +19.9 65 +33 +35 очень
душно
1003.8 994.1
06 21.09 С 2 12 км в посл. час дождь 9/9 1000 м
[Sc]
+26.4 +21.1 73 +33 +35 очень
душно
1003.6 993.9 0.0
09 21.09 С 1 12 км 10/10 1000 м
[Sc]
+25.3 +20.1 73 +31 +31 очень
душно
1005.2 995.4
12 21.09 С 4 12 км 9/9 1000 м
[Sc]
+23.9 +20.2 80 +30 +30 очень
душно
1007.8 998.0 0.0
18 21.09 СВ 1 15 км 9/9 1000 м
[Sc]
+24.8 +19.4 72 +30 +30 душно 1007.5 997.7
21 21.09 Ю 1 15 км 8/8 1000 м
[Sc]
+23.6 +20.8 84 +29 +29 душно 1008.9 999.0
00 22.09 С 1 15 км 8/5 1000 м
[Sc Ac und]
+26.0 +20.4 71 +32 +34 очень
душно
1011.2 1001.4
03 22.09 СЗ 2 15 км 10/10 1000 м
[Sc]
+28.8 +20.6 61 +36 +36 очень
душно
1011.1 1001.4
06 22.09 С 3 15 км 6/4 1000 м
[Sc Ac und]
+29.9 +21.4 60 +38 +43 очень
душно
1009.8 1000.1
09 22.09 С 3 12 км 3/0
[Ci fib]
+27.7 +20.5 65 +34 +35 очень
душно
1011.5 1001.7
12 22.09 С 2 12 км ясно +25.6 +20.4 73 +32 +32 очень
душно
1013.5 1003.7
18 22.09 С 2 12 км 9/9 1000 м
[Sc]
+24.7 +17.6 65 +29 +29 душно 1013.4 1003.5
21 22.09 С 2 12 км 9/9 1000 м
[Sc]
+24.0 +18.2 70 +28 +28 душно 1014.0 1004.1
00 23.09 С 3 15 км 4/3 1000 м
[Sc Ac trans]
+25.3 +18.8 67 +30 +33 душно 1016.0 1006.1
03 23.09 СЗ 3 20 км 8/0
[Ac trans]
+29.1 +19.8 57 +35 +42 очень
душно
1015.8 1006.0
06 23.09 С 2 20 км 6/0
[Ac trans]
+30.9 +18.9 49 +36 +45 очень
душно
1013.9 1004.2
09 23.09 С 3 20 км 3/0
[As trans]
+28.3 +20.1 61 +35 +35 очень
душно
1014.8 1005.0
12 23.09 С 2 12 км 1/0
[Ci fib]
+25.8 +19.6 69 +31 +31 очень
душно
1016.3 1006.4

 

Местоположение метеостанции Тайчжун (Тайвань, Китай): широта 24.15 долгота 120.68 высота над уровнем моря 78 м.

В архиве по умолчанию представлена погода в Тайчжуне за последнюю неделю. Архивные данные за месяц целиком и за предыдущие месяцы, начиная с января 2011 года, Вы можете получить, выбрав интересующий диапазон дат из раскрывающегося списка и нажав кнопку "Ввод!".


*Определитесь, кто Вы:
робот инопланетянин человек

Внимание! Время в таблицах - всемирное. Для получения местного времени необходимо прибавить поправку, которая равна 8 ч.

Смотрите также архив погоды в соседних городах и на ближайших метеорологических станциях:

Погода в Тайбэе (Тайвань, Китай) (129 км)
Погода в Тайнане (Тайвань, Китай) (137 км)
Погода в Тайдонге (Тайвань, Китай) (163 км)
Погода на Пинтане (Фуцзянь, Китай) (177 км)
Погода на Пенгджия (Тайвань, Китай) (216 км)
Погода на Йонагуни (Япония) (239 км)
Погода в Хенгчуне (Тайвань, Китай) (239 км)
Погода в Ланьюе (Тайвань, Китай) (252 км)
Погода в Фучжоу (Фуцзянь, Китай) (257 км)
Погода в Сямэне (Фуцзянь, Китай) (266 км)

Пояснения к столбцам:

Ветер - указаны скорость ветра в м/с - средняя за 10 мин, порывы в срок и между сроками (в фигурных скобках) и направление, откуда дует ветер: С - северный, СВ - северо-восточный, В - восточный, ЮВ - юго-восточный, Ю - южный, ЮЗ - юго-западный, З - западный, СЗ - северо-западный.
Видимость - горизонтальная дальность видимости в метрах или километрах. При видимости от 1 до 10 км при отсутствии осадков обычно наблюдается дымка, при ухудшении видимости до 1 км и менее - туман. В сухую погоду видимость может ухудшаться дымом, пылью или мглою.
Явления - указаны атмосферные явления, наблюдавшиеся в срок или в последний час перед сроком; фигурными скобками обозначены явления, наблюдавшиеся между сроками (за 1-3 часа до срока); квадратными скобками обозначены град или гололедные отложения с указанием их диаметра в мм.
Облачность - указаны через наклонную черту общая и нижняя облачность в баллах и высота нижней границы облаков в метрах; квадратными скобками обозначены формы облаков: Ci - перистые, Cs - перисто-слоистые, Cc - перисто-кучевые, Ac - высококучевые, As - высокослоистые, Sc - слоисто-кучевые, Ns - слоисто-дождевые, Cu - кучевые, Cb - кучево-дождевые. Подробнее классификацию облаков см. в Атласе облаков (PDF).
T - Температура воздуха - температура, измеренная на высоте 2 м над землей.
Td - Температура точки росы - температура, при понижении до которой содержащийся в воздухе водяной пар достигнет насыщения.
f - Относительная влажность воздуха - влажноcть воздуха, измеренная на высоте 2 м над землей.
Te - Эффективная температура - температура, которую ощущает одетый по сезону человек в тени. Характеристика душности погоды. При расчете учитывается влияние влажности воздуха и скорости ветра на теплоощущения человека.
Tes - Эффективная температура на солнце - температура, которую ощущает человек, с поправкой на солнечный нагрев. Характеристика знойности погоды. Зависит от высоты солнца над горизонтом, облачности и скорости ветра. Ночью, в пасмурную погоду, а также при ветре 12 м/с и более поправка равна нулю.
P - Атмосферное давление - приведенное к уровню моря атмосферное давление.
Po - Атмосферное давление - измеренное на уровне метеостанции атмосферное давление.
Tmin - Минимальная температура - минимум температуры воздуха на высоте 2 м над землей.
Tmax - Максимальная температура - максимум температуры воздуха на высоте 2 м над землей.
R - Количество осадков - Количество выпавших осадков за период времени, мм. При наведении курсора мыши на число - период времени, за который выпало указанное количество осадков.
R24 - Количество осадков - Количество выпавших осадков за 24 часа, мм.
S - Снежный покров - Высота снежного покрова, см. При наведении курсора мыши на число - состояние снежного покрова и степень покрытия местности в баллах.